Regional Weather Roundup
Issued by NWS

Home | Current Version | Previous Version | Text Only | Print | Product List | Glossary Off
Versions: 1 2 3 4 5 6 7 8 9 10 11 12 13 14 15 16 17 18 19 20 21 22 23 24 25 26 27 28 29 30 31 32 33 34 35 36 37 38 39 40 41 42 43 44 45 46 47 48 49 50

091
ASUS43 KLOT 270204
RWRIL

ILLINOIS REGIONAL WEATHER ROUNDUP
NATIONAL WEATHER SERVICE CHICAGO/ROMEOVILLE IL
900 PM CDT MON JUN 26 2017

NOTE: "FAIR" INDICATES FEW OR NO CLOUDS BELOW 12,000 FEET WITH NO
SIGNIFICANT WEATHER AND/OR OBSTRUCTIONS TO VISIBILITY.

* THESE STATIONS ARE NOT UNDER NWS QUALITY CONTROL. THEY ALSO MAY NOT
  REPORT WEATHER SUCH AS PRECIPITATION OR FOG.

ILZ001-002-007-009-015-016-024-270300-
NORTHWEST ILLINOIS

CITY           SKY/WX    TMP DP  RH WIND       PRES   REMARKS
MOLINE         CLEAR     66  42  41 N6        30.09R
STERLING*      CLEAR     63  45  51 N5        30.09R
SAVANNA*       CLEAR     62  43  50 N3        30.09S
$$

ILZ003-004-008-010-011-017-018-270300-
NORTH CENTRAL ILLINOIS

CITY           SKY/WX    TMP DP  RH WIND       PRES   REMARKS
ROCKFORD       CLEAR     61  44  53 N7        30.09S
FREEPORT*      CLEAR     58  45  61 CALM      30.11S
ROCHELLE*      CLEAR     59  45  60 N5        30.09R
DE KALB*       CLEAR     60  43  53 NW6       30.09R
PERU*          CLEAR     62  44  52 N8        30.08R
$$

ILZ005-006-012>014-019>023-270300-
NORTHEAST ILLINOIS

CITY           SKY/WX    TMP DP  RH WIND       PRES   REMARKS
CHICAGO-OHARE  PTCLDY    63  43  48 NW13      30.05R
CHICAGO-MIDWAY PTCLDY    64  43  46 NW15G24   30.06R
AURORA         CLEAR     58  46  64 N9        30.08R
LANSING*       MOCLDY    63  41  44 NW12G17   30.06R
JOLIET*        CLEAR     64  44  47 N5        30.07R
WAUKEGAN       CLEAR     58  47  66 W3        30.05R
DUPAGE AIRPORT CLEAR     61  45  55 NW12      30.06R
WHEELING       CLEAR     61  46  57 NW9       30.07R
MORRIS*        CLEAR     62  44  51 N3        30.06R
ROMEOVILLE*    PTCLDY    62  40  45 N9        30.07R
NORTHERLY ISL    N/A     63  42  46 W8          N/A
$$

LMZ740>746-270300-
SOUTHERN LAKE MICHIGAN

STATION/POSITION SKY/WX   TEMP    WIND        PRES    VSBY  WAVE
                          AIR SEA DIR/SP/G                  HT/PER
                          (F)     (DEG/KT/KT) (MB)    (MI)  (FT/S)
SOUTHERN BUOY              60 61  350/ 10/ 14 1017.0          3/ 5
WILMETTE HARBOR            62 63  330/ 14/ 16   N/A           3/ 4
HARRISON CRIB              64     310/ 15/ 19   N/A
BURNHAM HARBOR             63                   N/A
CALUMET HARBOR             64     310/  6/ 11 1016.9
BURNS HARBOR               63     340/ 14/ 19 1017.6S
MICHIGAN CITY              62     330/ 20/ 22   N/A
MICHIGAN CITY 6N           63 65  330/ 17/ 23   N/A           5/ 5
ST. JOSEPH                 62 68   10/ 14/ 19 1017.4R         4/ 5
$$

ILZ025>027-034>036-040-047-049-050-058-095>099-270300-
WEST-CENTRAL ILLINOIS

CITY           SKY/WX    TMP DP  RH WIND       PRES   REMARKS
QUINCY         CLEAR     65  53  65 SW6       30.08S
GALESBURG*     CLEAR     61  55  81 NW5       30.10R
MACOMB*        CLEAR     59  55  87 SW3       30.11S
JACKSONVILLE*  CLEAR     63  52  66 SW3       30.09S
PITTSFIELD*    CLEAR     63  56  78 CALM      30.10S
$$

ILZ028>032-037-038-041>044-048-051>054-059>061-270300-
CENTRAL ILLINOIS

CITY           SKY/WX    TMP DP  RH WIND       PRES   REMARKS
PONTIAC        CLEAR     61  55  78 W7        30.08S
BLOOMINGTON    CLEAR     57  53  86 SW6       30.09S
DECATUR        CLOUDY    60  52  74 NW5       30.09F
PEORIA         CLEAR     59  56  89 CALM      30.08S
LACON*         CLEAR     61  55  78 CALM      30.08R
LINCOLN*       PTCLDY    60  57  92 SW3       30.09R
SPRINGFIELD    CLEAR     60  55  83 S5        30.10F
TAYLORVILLE    CLEAR     60  52  74 NE5       30.11S
$$

ILZ033-039-045-046-055>057-062-063-270300-
EAST-CENTRAL ILLINOIS

CITY           SKY/WX    TMP DP  RH WIND       PRES   REMARKS
CHAMPAIGN      PTCLDY    57  49  74 W5        30.09S
RANTOUL*       PTCLDY    60  55  84 W5        30.08S
MATTOON        PTCLDY    61  51  70 NW3       30.09R
PARIS*         PTCLDY    58  52  81 CALM      30.09S
$$

ILZ079-100>102-270300-
SOUTHWEST ILLINOIS

CITY           SKY/WX    TMP DP  RH WIND       PRES   REMARKS
BELLEVILLE     CLOUDY    66  52  60 W3        30.10F
CAHOKIA*       CLOUDY    67  50  54 SW5       30.10S
SPARTA*        CLOUDY    66  52  60 NW3       30.11S
$$

ILZ064>066-069>071-074>076-080>082-084>086-088>090-092>094-270300-
SOUTH-CENTRAL ILLINOIS

CITY           SKY/WX    TMP DP  RH WIND       PRES   REMARKS
CARBONDALE     CLOUDY    67  59  75 N7        30.09R
CAIRO*         PTCLDY    70  59  69 S5        30.07F
EFFINGHAM*     CLEAR     61  55  80 CALM      30.11S
MARION         CLOUDY    68  57  68 N5        30.09R
MT. VERNON     PTCLDY    59  55  87 CALM      30.10S
CENTRALIA*     CLEAR     63  56  80 CALM      30.09F
SALEM*         PTCLDY    63  56  78 CALM      30.10S
METROPOLIS*    CLOUDY    71  57  61 CALM      30.07F
$$

ILZ067-068-072-073-078-083-087-091-270300-
SOUTHEAST ILLINOIS

CITY           SKY/WX    TMP DP  RH WIND       PRES   REMARKS
LAWRENCEVILLE  CLOUDY    66  51  58 W3        30.09F
FLORA*         CLEAR     62  53  74 CALM      30.10S
FAIRFIELD*     PTCLDY    63  54  72 CALM      30.09S
HARRISBURG*    CLOUDY    66  55  68 N5        30.09R
ROBINSON*      PTCLDY    57  54  88 SW5       30.09F
CARMI*         CLOUDY    62  56  80 N3        30.09S
$$

ABBREVIATIONS USED IN REMARKS
   TC - TEMPERATURE IN CELSIUS
  WCI - WIND CHILL INDEX
   HX - HEAT INDEX
  VSB - VISIBILITY
$$





USA.gov is the U.S. government's official web portal to all federal, state and local government web resources and services.